EST,Max TemperatureF,Mean TemperatureF,Min TemperatureF,Max Dew PointF,MeanDew PointF,Min DewpointF,Max Humidity, Mean Humidity, Min Humidity, Max Sea Level PressureIn, Mean Sea Level PressureIn, Min Sea Level PressureIn, Max VisibilityMiles, Mean VisibilityMiles, Min VisibilityMiles, Max Wind SpeedMPH, Mean Wind SpeedMPH, Max Gust SpeedMPH,PrecipitationIn, CloudCover, Events, WindDirDegrees
2012-12-1,62,54,46,46,43,39,82,65,45,30.32,30.25,30.21,10,10,10,12,7,16,0.00,2,,190
2012-12-2,68,62,55,52,48,45,72,62,52,30.22,30.18,30.12,10,10,10,21,13,33,0.00,5,,208
2012-12-3,71,64,57,54,50,46,72,62,50,30.24,30.19,30.14,10,10,10,15,8,21,0.00,2,,202
2012-12-4,68,56,44,55,51,43,94,71,59,30.22,30.14,30.08,10,10,2,21,11,33,0.00,7,,206
2012-12-5,53,44,35,45,38,32,100,79,47,30.34,30.27,30.23,10,9,0,6,3,,0.00,2,,24
2012-12-6,53,43,33,46,42,30,87,76,67,30.15,30.07,30.01,10,10,7,13,5,16,0.00,7,,167
2012-12-7,59,54,50,52,49,45,88,78,72,30.03,29.95,29.90,10,10,10,14,9,23,0.00,8,,197
2012-12-8,59,55,51,55,53,50,94,90,82,29.99,29.93,29.89,10,8,3,13,8,18,0.00,8,,211
2012-12-9,60,56,51,57,54,50,100,90,77,29.99,29.91,29.77,10,8,2,16,5,22,0.00,7,,169
2012-12-10,62,47,32,55,44,30,100,92,72,29.96,29.77,29.68,10,8,1,17,10,23,0.00,8,,274
2012-12-11,33,28,24,28,25,23,93,78,65,30.24,30.11,29.96,10,10,10,12,6,,0.00,5,,282
2012-12-12,41,31,21,28,24,19,100,79,49,30.38,30.33,30.25,10,9,7,12,2,,0.00,0,,64
2012-12-13,50,36,21,32,26,19,100,79,43,30.40,30.34,30.29,10,10,7,5,2,,0.00,0,,130
2012-12-14,55,42,28,32,27,23,87,61,30,30.35,30.27,30.16,10,10,10,9,4,,0.00,0,,186
2012-12-15,59,48,37,46,36,28,81,58,42,30.15,30.01,29.86,10,10,10,18,7,25,0.00,5,,180
2012-12-16,60,56,53,52,50,46,82,78,72,29.89,29.80,29.71,10,10,10,17,11,23,0.00,7,,200
2012-12-17,59,52,44,52,48,43,94,86,72,29.79,29.68,29.56,10,10,4,17,7,30,0.00,6,,208
2012-12-18,46,42,39,45,36,28,93,76,50,29.93,29.82,29.64,10,10,5,21,10,28,0.00,5,,236
2012-12-19,55,48,41,39,37,32,81,66,51,30.06,29.99,29.87,10,10,10,16,8,23,0.00,0,,179
2012-12-20,55,44,33,46,38,25,87,72,54,29.94,29.65,29.40,10,9,4,37,15,52,0.00,6,,191
2012-12-21,33,30,28,27,23,19,80,74,64,30.14,29.89,29.70,10,9,5,30,20,44,0.00,8,,283
2012-12-22,37,29,21,21,19,16,86,66,48,30.30,30.20,30.10,10,10,10,15,10,21,0.00,2,,243
2012-12-23,51,42,32,41,27,16,87,57,41,30.09,30.00,29.94,10,10,10,15,9,22,0.00,3,,209
2012-12-24,50,46,41,46,43,37,93,91,82,29.98,29.85,29.79,10,9,2,12,6,18,0.00,8,,220
2012-12-25,41,36,32,36,30,27,93,84,75,30.13,30.04,29.90,10,9,4,15,8,22,0.00,8,,31
2012-12-26,48,39,30,43,35,27,100,91,76,29.94,29.62,29.42,10,8,1,22,13,30,0.00,8,,5
2012-12-27,30,29,28,27,25,23,86,80,75,30.15,30.10,29.94,10,10,10,17,9,28,0.00,8,,314
2012-12-28,41,36,30,34,29,25,100,81,65,30.13,30.00,29.76,10,9,4,8,4,,0.00,7,,112
2012-12-29,35,30,24,34,29,19,100,90,74,30.25,29.92,29.69,10,7,2,21,9,31,0.00,8,,278
2012-12-30,33,28,23,21,20,18,80,72,56,30.47,30.39,30.26,10,10,10,18,9,26,0.00,3,,250
2012-12-31,39,32,24,32,25,21,93,72,61,30.36,30.22,30.10,10,10,5,12,5,,0.00,5,,207